Weather in Tushna

Russia / Ulyanovsk Oblast     54°01′21″N   48°31′09″E
temp.,
°C
wind,
m/s
gust,
m/s
humid.,
%
clouds,
%
prec.,
mm/h
press.,
hPa
HPBL,
m
13 august, sat
sat1301:00+17wsw22760 0.0 102213
04:00+16w22815 0.0 102217
07:00+18wnw22788 0.0 102280
10:00+22nnw23554 0.0 1022559
13:00+25n33475 0.0 10211061
16:00+25nne34465 0.0 10201192
19:00+22ne11630 0.0 102021
22:00+19nne22760 0.0 102036
14 august, sun
sun1401:00+17nne11810 0.0 102114
04:00+16ne11830 0.0 102117
07:00+17ne23764 0.0 1021106
10:00+21ne346084 0.0 1021477
13:00+24ene3448100 0.0 10211158
16:00+25nne45455 0.0 10201435
19:00+22n47615 0.0 1020185
22:00+18ene386756 0.0 1021169
15 august, mon
mon1501:00+16ne12728 0.0 102135
04:00+15nne22785 0.0 102243
07:00+16ne23775 0.0 1023105
10:00+21ene35555 0.0 1023578
13:00+24nne454140 0.0 10231491
16:00+24nne463951 0.0 10221473
19:00+22ne48535 0.0 1022225
22:00+17ne310591 0.0 1023182
16 august, tue
tue1601:00+15ene24654 0.0 102484
04:00+14ene22695 0.0 102441
07:00+15ne24695 0.0 1025117
10:00+21ene36502 0.0 1025520
13:00+25e464054 0.0 10241466
16:00+25ene354091 0.0 10231601
19:00+22n225838 0.0 102337
22:00+18ene24635 0.0 102459
17 august, wed
wed1701:00+16e24725 0.0 102470
04:00+15ese25765 0.0 102499
07:00+16e257024 0.0 1025148
10:00+21e485099 0.0 1024598
13:00+24e5740100 0.0 10231246
16:00+26e4637100 0.0 10211425
19:00+22ene3750100 0.0 1021128
22:00+20e3115499 0.0 1021239